Hourly Weather Kyzyltan

Today, 25 October, Sunday

Time Temperature Precipitation Wind Pressure Humidity
00:00 +7°C° 0 mm 1 mps 703 mmHg 45%
01:00 +7°C° 0 mm 1 mps 703 mmHg 46%
02:00 +7°C° 0 mm 1 mps 703 mmHg 46%
03:00 +7°C° 0 mm 1 mps 703 mmHg 46%
04:00 +7°C° 0 mm 1 mps 703 mmHg 46%
05:00 +7°C° 0 mm 1 mps 704 mmHg 46%
06:00 +7°C° 0 mm 1 mps 704 mmHg 44%
07:00 +8°C° 0 mm 1 mps 704 mmHg 41%
08:00 +9°C° 0 mm 1 mps 705 mmHg 38%
09:00 +11°C° 0 mm 1 mps 705 mmHg 34%
10:00 +13°C° 0 mm 1 mps 705 mmHg 30%
11:00 +15°C° 0 mm 2 mps 705 mmHg 26%
12:00 +16°C° 0 mm 2 mps 705 mmHg 25%
13:00 +16°C° 0 mm 2 mps 704 mmHg 24%
14:00 +17°C° 0 mm 2 mps 704 mmHg 22%
15:00 +16°C° 0 mm 2 mps 704 mmHg 25%
16:00 +15°C° 0 mm 2 mps 704 mmHg 27%
17:00 +14°C° 0 mm 1 mps 704 mmHg 29%
18:00 +12°C° 0 mm 1 mps 703 mmHg 32%
19:00 +11°C° 0 mm 1 mps 703 mmHg 35%
20:00 +9°C° 0 mm 2 mps 703 mmHg 38%
21:00 +9°C° 0 mm 2 mps 702 mmHg 37%
22:00 +9°C° 0 mm 2 mps 702 mmHg 37%
23:00 +9°C° 0 mm 2 mps 702 mmHg 37%

Tomorrow, 26 October, Monday

Time Temperature Precipitation Wind Pressure Humidity
00:00 +8°C° 0 mm 2 mps 702 mmHg 36%
01:00 +8°C° 0 mm 2 mps 701 mmHg 35%
02:00 +8°C° 0 mm 2 mps 701 mmHg 35%
03:00 +8°C° 0 mm 2 mps 701 mmHg 35%
04:00 +8°C° 0 mm 2 mps 701 mmHg 34%
05:00 +8°C° 0 mm 2 mps 701 mmHg 34%
06:00 +9°C° 0 mm 2 mps 701 mmHg 32%
07:00 +10°C° 0 mm 2 mps 701 mmHg 31%
08:00 +12°C° 0 mm 2 mps 701 mmHg 29%
09:00 +14°C° 0 mm 2 mps 701 mmHg 25%
10:00 +18°C° 0 mm 1 mps 701 mmHg 21%
11:00 +20°C° 0 mm 1 mps 701 mmHg 17%
12:00 +21°C° 0 mm 1 mps 701 mmHg 16%
13:00 +20°C° 0 mm 2 mps 701 mmHg 15%
14:00 +21°C° 0 mm 2 mps 700 mmHg 15%
15:00 +19°C° 0 mm 2 mps 700 mmHg 17%
16:00 +19°C° 0 mm 1 mps 700 mmHg 19%
17:00 +16°C° 0 mm 1 mps 699 mmHg 21%
18:00 +15°C° 0 mm 1 mps 699 mmHg 23%
19:00 +14°C° 0 mm 1 mps 699 mmHg 25%
20:00 +13°C° 0 mm 1 mps 699 mmHg 27%
21:00 +12°C° 0 mm 2 mps 699 mmHg 26%
22:00 +12°C° 0 mm 2 mps 698 mmHg 25%
23:00 +12°C° 0 mm 2 mps 698 mmHg 25%

Day after tomorrow, 27 October, Tuesday

Time Temperature Precipitation Wind Pressure Humidity
00:00 +12°C° 0 mm 2 mps 698 mmHg 24%
01:00 +12°C° 0 mm 2 mps 698 mmHg 23%
02:00 +12°C° 0 mm 2 mps 697 mmHg 23%
03:00 +12°C° 0 mm 2 mps 697 mmHg 22%
04:00 +12°C° 0 mm 2 mps 697 mmHg 22%
05:00 +12°C° 0 mm 2 mps 697 mmHg 22%
06:00 +13°C° 0 mm 2 mps 697 mmHg 21%
07:00 +14°C° 0 mm 2 mps 697 mmHg 20%
08:00 +14°C° 0 mm 1 mps 697 mmHg 19%
09:00 +16°C° 0 mm 2 mps 697 mmHg 17%
10:00 +18°C° 0 mm 2 mps 697 mmHg 16%
11:00 +20°C° 0 mm 2 mps 697 mmHg 14%
12:00 +20°C° 0 mm 2 mps 697 mmHg 14%
13:00 +21°C° 0 mm 3 mps 696 mmHg 14%
14:00 +21°C° 0 mm 3 mps 696 mmHg 14%
15:00 +20°C° 0 mm 3 mps 696 mmHg 17%
16:00 +18°C° 0 mm 2 mps 696 mmHg 19%
17:00 +16°C° 0 mm 2 mps 696 mmHg 22%
18:00 +15°C° 0 mm 1 mps 696 mmHg 24%
19:00 +14°C° 0 mm 1 mps 696 mmHg 26%
20:00 +13°C° 0 mm 1 mps 696 mmHg 27%
21:00 +12°C° 0 mm 1 mps 696 mmHg 28%
22:00 +12°C° 0 mm 1 mps 696 mmHg 29%
23:00 +12°C° 0 mm 1 mps 697 mmHg 30%

28 October, Wednesday

Time Temperature Precipitation Wind Pressure Humidity
00:00 +11°C° 0 mm 1 mps 697 mmHg 31%
01:00 +11°C° 0 mm 1 mps 697 mmHg 32%
02:00 +11°C° 0 mm 1 mps 697 mmHg 33%
03:00 +10°C° 0 mm 1 mps 697 mmHg 36%
04:00 +9°C° 0 mm 1 mps 697 mmHg 39%
05:00 +8°C° 0 mm 1 mps 697 mmHg 42%
06:00 +9°C° 0 mm 1 mps 698 mmHg 41%
07:00 +9°C° 0 mm 1 mps 698 mmHg 40%
08:00 +9°C° 0 mm 1 mps 699 mmHg 39%
09:00 +9°C° 0 mm 2 mps 699 mmHg 38%
10:00 +10°C° 0 mm 2 mps 700 mmHg 38%
11:00 +10°C° 0 mm 2 mps 700 mmHg 37%
12:00 +11°C° 0 mm 3 mps 700 mmHg 35%
13:00 +11°C° 0 mm 3 mps 701 mmHg 34%
14:00 +12°C° 0 mm 3 mps 701 mmHg 32%
15:00 +11°C° 0 mm 3 mps 701 mmHg 32%
16:00 +9°C° 0 mm 3 mps 701 mmHg 31%
17:00 +8°C° 0 mm 3 mps 701 mmHg 31%
18:00 +5°C° 0 mm 3 mps 702 mmHg 34%
19:00 +4°C° 0 mm 2 mps 702 mmHg 37%
20:00 +3°C° 0 mm 2 mps 702 mmHg 39%
21:00 +2°C° 0 mm 2 mps 702 mmHg 41%
22:00 +2°C° 0 mm 2 mps 702 mmHg 43%
23:00 +2°C° 0 mm 2 mps 702 mmHg 44%

29 October, Thursday

Time Temperature Precipitation Wind Pressure Humidity
00:00 +2°C° 0 mm 1 mps 702 mmHg 45%
01:00 +2°C° 0 mm 1 mps 702 mmHg 45%
02:00 +2°C° 0 mm 1 mps 702 mmHg 46%
03:00 +2°C° 0 mm 1 mps 702 mmHg 47%
04:00 +1°C° 0 mm 1 mps 702 mmHg 47%
05:00 +1°C° 0 mm 1 mps 702 mmHg 48%
06:00 +2°C° 0 mm 1 mps 703 mmHg 46%
07:00 +2°C° 0 mm 1 mps 703 mmHg 44%
08:00 +3°C° 0 mm 1 mps 704 mmHg 42%
09:00 +3°C° 0 mm 2 mps 704 mmHg 39%
10:00 +5°C° 0 mm 2 mps 704 mmHg 35%
11:00 +5°C° 0 mm 3 mps 704 mmHg 31%
12:00 +7°C° 0 mm 3 mps 704 mmHg 31%
13:00 +7°C° 0 mm 3 mps 705 mmHg 31%
14:00 +8°C° 0 mm 3 mps 705 mmHg 31%
15:00 +5°C° 0 mm 3 mps 705 mmHg 34%
16:00 +4°C° 0 mm 3 mps 705 mmHg 38%
17:00 +3°C° 0 mm 3 mps 705 mmHg 41%
18:00 +1°C° 0 mm 3 mps 705 mmHg 45%
19:00 +1°C° 0 mm 2 mps 706 mmHg 50%
20:00 -2°C° 0 mm 2 mps 706 mmHg 54%
21:00 -2°C° 0 mm 2 mps 706 mmHg 56%
22:00 0°C° 0 mm 1 mps 706 mmHg 58%
23:00 -1°C° 0 mm 1 mps 706 mmHg 60%

30 October, Friday

Time Temperature Precipitation Wind Pressure Humidity
00:00 -1°C° 0 mm 1 mps 706 mmHg 61%
01:00 -1°C° 0 mm 1 mps 707 mmHg 61%
02:00 -1°C° 0 mm 1 mps 707 mmHg 62%
03:00 -1°C° 0 mm 1 mps 707 mmHg 61%
04:00 -1°C° 0 mm 1 mps 707 mmHg 61%
05:00 -1°C° 0 mm 1 mps 707 mmHg 60%
06:00 -1°C° 0 mm 1 mps 707 mmHg 54%
07:00 0°C° 0 mm 1 mps 708 mmHg 48%
08:00 +1°C° 0 mm 1 mps 708 mmHg 42%
09:00 +4°C° 0 mm 1 mps 708 mmHg 36%
10:00 +5°C° 0 mm 2 mps 708 mmHg 29%
11:00 +7°C° 0 mm 2 mps 709 mmHg 23%
12:00 +8°C° 0 mm 2 mps 708 mmHg 21%
13:00 +9°C° 0 mm 3 mps 708 mmHg 18%
14:00 +10°C° 0 mm 3 mps 708 mmHg 16%
15:00 +9°C° 0 mm 3 mps 707 mmHg 19%
16:00 +8°C° 0 mm 3 mps 707 mmHg 21%
17:00 +6°C° 0 mm 2 mps 707 mmHg 24%
18:00 +5°C° 0 mm 2 mps 706 mmHg 26%
19:00 +4°C° 0 mm 2 mps 706 mmHg 28%
20:00 +3°C° 0 mm 2 mps 706 mmHg 30%
21:00 +3°C° 0 mm 2 mps 706 mmHg 28%
22:00 +4°C° 0 mm 1 mps 705 mmHg 26%
23:00 +4°C° 0 mm 1 mps 705 mmHg 24%
Show more

We Need Your Consent

Meteoprog and our Service Providers may store and access personal data such as cookies, device identifiers or other similar technologies on your device and process such data to personalise content and ads, as well as provide social media features and to analyse the traffic.

  • Store and/or access information on your device

    Cookies, device identifiers or other information can be stored or accessed on your device for the purposes indicated above.

  • Personalised ads and content, ad and content measurement, audience insights, and products development

    Ads and content can be personalised based on a profile. More data can be added to better personalise ads and content. Ad and content performance can be measured. Insights about the audience who saw the ads and content can be derived. Such data can be used to develop or improve user’s experience, systems and software.

By clicking ‘I Agree’ you will allow the use of indicated cookies, device identifiers, web beacons or other similar technologies. Your settings can be changed in the browser on your device.

For certain purposes, legitimate interests may be relied on, rather than consent. You can read more about this in our Privacy and Cookie Policy.